DW9104 Weather Reports


Display with metric or nautical units.
time (UTC)temp
F
wind
direction
speed
MPH
gust
MPH
rain 1hr
in
rain 24hr
in
rain mn
in
humidity
%
barometer
mb
20260508054405 50 106 0.0 0.0 0.00 0.00 0.00 84 1015.7
20260508053905 50 106 0.0 0.0 0.00 0.00 0.00 85 1015.6
20260508053405 50 106 0.0 0.0 0.00 0.00 0.00 85 1015.6
20260508052905 50 106 0.0 0.0 0.00 0.00 0.00 84 1015.5
20260508052405 50 106 0.0 0.0 0.00 0.00 0.00 84 1015.4
20260508051905 49 106 0.0 0.0 0.00 0.00 0.00 84 1015.4
20260508051405 49 106 0.0 1.0 0.00 0.00 0.00 84 1015.3
20260508050905 49 106 0.0 0.0 0.00 0.00 0.00 84 1015.3
20260508050404 49 106 0.0 1.0 0.00 0.00 0.00 84 1015.3
20260508044905 49 107 0.0 1.0 0.00 0.00 0.00 83 1015.4
20260508044405 49 107 0.0 0.0 0.00 0.00 0.00 83 1015.4
20260508043905 49 107 0.0 2.0 0.00 0.00 0.00 83 1015.4
20260508043405 49 98 0.0 2.0 0.00 0.00 0.00 83 1015.3
20260508042905 50 92 0.0 1.0 0.00 0.00 0.00 82 1015.4
20260508042405 50 92 0.0 1.0 0.00 0.00 0.00 82 1015.4
20260508041905 50 91 0.0 3.0 0.00 0.00 0.00 82 1015.3
20260508040905 50 123 0.0 1.0 0.00 0.00 0.00 81 1015.3
20260508035905 50 123 0.0 1.0 0.00 0.00 0.00 81 1015.2
20260508034905 50 119 0.0 1.0 0.00 0.00 0.00 80 1015.3
20260508034405 50 120 0.0 0.0 0.00 0.00 0.00 79 1015.2
20260508033905 50 120 0.0 0.0 0.00 0.00 0.00 79 1015.2
20260508033405 50 120 0.0 0.0 0.00 0.00 0.00 79 1015.2
20260508032904 50 120 0.0 0.0 0.00 0.00 0.00 78 1015.2
20260508032405 50 120 0.0 0.0 0.00 0.00 0.00 78 1015.2
20260508031904 50 120 0.0 2.0 0.00 0.00 0.00 78 1015.2
20260508031405 50 123 0.0 1.0 0.00 0.00 0.00 78 1015.1
20260508030905 51 109 0.0 2.0 0.00 0.00 0.00 78 1015.3
20260508030405 51 93 0.0 2.0 0.00 0.00 0.00 78 1015.3
20260508025904 51 116 0.0 2.0 0.00 0.00 0.00 78 1015.3
20260508025405 51 108 0.0 2.0 0.00 0.00 0.00 78 1015.3
20260508024904 51 108 0.0 1.0 0.00 0.00 0.00 78 1015.3
20260508024404 51 107 0.0 1.0 0.00 0.00 0.00 78 1015.3
20260508023905 51 108 0.0 1.0 0.00 0.00 0.00 79 1015.3
20260508023404 51 108 0.0 3.0 0.00 0.00 0.00 80 1015.3
20260508022905 51 101 0.0 1.0 0.00 0.00 0.00 81 1015.3
20260508022405 51 101 0.0 0.0 0.00 0.00 0.00 81 1015.2
20260508021905 51 101 0.0 1.0 0.00 0.00 0.00 82 1015.2
20260508020904 51 101 0.0 0.0 0.00 0.00 0.00 83 1015.2
20260508020404 51 101 0.0 0.0 0.00 0.00 0.00 83 1015.2
20260508015405 51 101 0.0 0.0 0.00 0.00 0.00 83 1015.2
20260508014905 51 101 0.0 0.0 0.00 0.00 0.00 83 1015.2
20260508013904 51 101 0.0 0.0 0.00 0.00 0.00 82 1015.1
20260508013405 51 101 0.0 0.0 0.00 0.00 0.00 82 1015.1
20260508012905 51 101 0.0 0.0 0.00 0.00 0.00 82 1015.2
20260508012405 51 101 0.0 0.0 0.00 0.00 0.00 81 1015.2
20260508011905 51 101 0.0 0.0 0.00 0.00 0.00 81 1015.3
20260508011404 51 101 0.0 0.0 0.00 0.00 0.00 82 1015.3
20260508010904 51 101 0.0 0.0 0.00 0.00 0.00 82 1015.2
20260508010404 51 101 0.0 1.0 0.00 0.00 0.00 82 1015.2
20260508005905 51 102 0.0 1.0 0.00 0.00 0.00 82 1015.2
20260508004904 51 103 0.0 0.0 0.00 0.00 0.00 82 1015.3
20260508004404 52 103 0.0 0.0 0.00 0.00 0.00 82 1015.3
20260508003405 51 103 0.0 0.0 0.00 0.00 0.00 82 1015.4
20260508002904 52 103 0.0 0.0 0.00 0.00 0.00 81 1015.3
20260508001905 52 103 0.0 0.0 0.00 0.00 0.00 81 1015.3
20260508001405 52 103 0.0 0.0 0.00 0.00 0.00 81 1015.4
20260508000904 52 103 0.0 1.0 0.00 0.00 0.00 80 1015.3
20260508000405 52 103 0.0 1.0 0.00 0.00 0.00 80 1015.3
20260507235905 52 102 0.0 1.0 0.00 0.00 0.00 80 1015.3
20260507234904 52 102 0.0 0.0 0.00 0.00 0.00 80 1015.3
20260507234404 52 101 0.0 0.0 0.00 0.00 0.00 80 1015.3
20260507233905 52 101 0.0 0.0 0.00 0.00 0.00 80 1015.3
20260507233404 52 101 0.0 0.0 0.00 0.00 0.00 80 1015.3
20260507232905 52 102 0.0 1.0 0.00 0.00 0.00 80 1015.3
20260507231904 52 101 0.0 0.0 0.00 0.00 0.00 80 1015.3
20260507231405 53 101 0.0 0.0 0.00 0.00 0.00 79 1015.3
20260507230904 53 101 0.0 1.0 0.00 0.00 0.00 79 1015.3
20260507230404 53 101 0.0 0.0 0.00 0.00 0.00 78 1015.3
20260507225404 53 101 0.0 0.0 0.00 0.00 0.00 78 1015.4
20260507224905 53 101 0.0 0.0 0.00 0.00 0.00 77 1015.4
20260507224404 53 101 0.0 0.0 0.00 0.00 0.00 77 1015.4
20260507223904 53 101 0.0 0.0 0.00 0.00 0.00 77 1015.3
20260507223404 53 101 0.0 0.0 0.00 0.00 0.00 77 1015.3
20260507222904 53 101 0.0 0.0 0.00 0.00 0.00 77 1015.3
20260507222405 53 101 0.0 0.0 0.00 0.00 0.00 77 1015.3
20260507221905 53 101 0.0 1.0 0.00 0.00 0.00 77 1015.3
20260507221409 53 101 0.0 0.0 0.00 0.00 0.00 77 1015.3
20260507220904 53 101 0.0 1.0 0.00 0.00 0.00 77 1015.3
20260507220405 53 102 0.0 0.0 0.00 0.00 0.00 76 1015.3
20260507215904 53 101 1.0 2.0 0.00 0.00 0.00 76 1015.3
20260507215404 53 101 0.0 0.0 0.00 0.00 0.00 76 1015.3
20260507214904 53 102 0.0 0.0 0.00 0.00 0.00 76 1015.3
20260507214404 53 102 0.0 0.0 0.00 0.00 0.00 76 1015.2
20260507213905 53 101 0.0 1.0 0.00 0.00 0.00 76 1015.2
20260507213404 53 101 0.0 0.0 0.00 0.00 0.00 76 1015.2
20260507212905 53 102 0.0 0.0 0.00 0.00 0.00 76 1015.2
20260507212404 53 101 0.0 1.0 0.00 0.00 0.00 76 1015.1
20260507211904 53 101 0.0 0.0 0.00 0.00 0.00 76 1015.1
20260507211404 53 107 0.0 1.0 0.00 0.00 0.00 76 1015.1
20260507210904 53 107 0.0 0.0 0.00 0.00 0.00 76 1015.1
20260507210404 53 107 0.0 1.0 0.00 0.00 0.00 76 1015.0
20260507205905 53 103 0.0 0.0 0.00 0.00 0.00 76 1015.0
20260507204904 53 103 0.0 1.0 0.00 0.00 0.00 76 1015.0
20260507204405 53 103 0.0 0.0 0.00 0.00 0.00 77 1015.0
20260507203905 53 102 0.0 0.0 0.00 0.00 0.00 77 1014.9
20260507202905 53 103 0.0 0.0 0.00 0.00 0.00 77 1014.8
20260507202404 53 103 0.0 0.0 0.00 0.00 0.00 77 1014.7
20260507201905 53 103 0.0 0.0 0.00 0.00 0.00 76 1014.7
20260507201404 53 103 0.0 0.0 0.00 0.00 0.00 76 1014.7
20260507200905 53 103 0.0 1.0 0.00 0.00 0.00 76 1014.7
20260507200405 53 103 0.0 1.0 0.00 0.00 0.00 75 1014.7
20260507195904 54 103 0.0 1.0 0.00 0.00 0.00 75 1014.6
20260507194906 54 129 0.0 1.0 0.00 0.00 0.00 75 1014.6
20260507194404 54 131 0.0 2.0 0.00 0.00 0.00 75 1014.5
20260507193904 54 121 1.0 3.0 0.00 0.00 0.00 74 1014.5
20260507193404 54 101 0.0 0.0 0.00 0.00 0.00 74 1014.5
20260507192904 54 101 0.0 3.0 0.00 0.00 0.00 73 1014.5
20260507192405 54 131 0.0 0.0 0.00 0.00 0.00 73 1014.5
20260507191905 54 131 0.0 3.0 0.00 0.00 0.00 72 1014.5
20260507191404 55 102 0.0 1.0 0.00 0.00 0.00 72 1014.4
20260507190904 55 102 0.0 1.0 0.00 0.00 0.00 71 1014.4
20260507190404 55 94 0.0 1.0 0.00 0.00 0.00 71 1014.4
20260507185904 55 122 0.0 1.0 0.00 0.00 0.00 70 1014.4
20260507185404 55 122 0.0 1.0 0.00 0.00 0.00 70 1014.3
20260507184904 55 122 0.0 1.0 0.00 0.00 0.00 69 1014.3
20260507184404 55 122 0.0 1.0 0.00 0.00 0.00 69 1014.3
20260507183404 56 127 0.0 1.0 0.00 0.00 0.00 67 1014.3
20260507182404 57 126 0.0 2.0 0.00 0.00 0.00 64 1014.2
20260507181904 57 99 0.0 5.0 0.00 0.00 0.00 60 1014.2
20260507181404 57 131 1.0 3.0 0.00 0.00 0.00 60 1014.1
20260507180904 57 130 1.0 6.0 0.00 0.00 0.00 59 1014.0
20260507180404 57 108 1.0 3.0 0.00 0.00 0.00 58 1014.0
20260507175904 57 98 0.0 2.0 0.00 0.00 0.00 57 1014.0
20260507175404 57 115 2.0 5.0 0.00 0.00 0.00 57 1014.0
20260507174904 57 98 0.0 2.0 0.00 0.00 0.00 57 1014.0
20260507174404 57 115 2.0 7.0 0.00 0.00 0.00 55 1014.1
20260507173904 57 120 0.0 3.0 0.00 0.00 0.00 55 1014.1
20260507173403 58 132 0.0 3.0 0.00 0.00 0.00 55 1014.1
20260507172904 58 147 1.0 3.0 0.00 0.00 0.00 54 1014.0
20260507172404 58 117 1.0 6.0 0.00 0.00 0.00 53 1014.0
20260507171404 58 129 1.0 5.0 0.00 0.00 0.00 53 1014.0
20260507170905 58 103 1.0 5.0 0.00 0.00 0.00 52 1013.9
20260507170404 58 123 1.0 3.0 0.00 0.00 0.00 53 1014.0
20260507165404 59 104 2.0 6.0 0.00 0.00 0.00 53 1013.9
20260507164904 59 92 2.0 8.0 0.00 0.00 0.00 53 1013.9
20260507164404 59 124 0.0 3.0 0.00 0.00 0.00 53 1013.9
20260507163904 59 131 0.0 3.0 0.00 0.00 0.00 52 1013.9
20260507163404 60 106 2.0 6.0 0.00 0.00 0.00 51 1013.8
20260507162904 60 120 1.0 5.0 0.00 0.00 0.00 52 1013.9
20260507162404 60 118 2.0 8.0 0.00 0.00 0.00 51 1013.9
20260507161904 60 133 0.0 6.0 0.00 0.00 0.00 51 1013.8
20260507161403 60 83 1.0 5.0 0.00 0.00 0.00 52 1013.8
20260507160404 61 99 1.0 5.0 0.00 0.00 0.00 51 1013.8
20260507155904 61 120 1.0 6.0 0.00 0.00 0.00 50 1013.8
20260507154904 61 135 0.0 2.0 0.00 0.00 0.00 50 1013.8
20260507154404 61 39 0.0 3.0 0.00 0.00 0.00 49 1013.8
20260507153404 61 88 0.0 3.0 0.00 0.00 0.00 49 1013.9
20260507152903 61 19 0.0 5.0 0.00 0.00 0.00 50 1013.9
20260507151903 61 115 2.0 7.0 0.00 0.00 0.00 48 1014.0
20260507150904 61 95 0.0 6.0 0.00 0.00 0.00 49 1014.0
20260507150404 61 116 1.0 3.0 0.00 0.00 0.00 49 1014.0
20260507145903 61 132 0.0 3.0 0.00 0.00 0.00 49 1014.0
20260507145404 61 139 1.0 3.0 0.00 0.00 0.00 48 1014.0
20260507144904 62 133 1.0 5.0 0.00 0.00 0.00 49 1014.1
20260507144403 62 127 0.0 2.0 0.00 0.00 0.00 49 1014.1
20260507143904 61 96 2.0 5.0 0.00 0.00 0.00 48 1014.1
20260507142904 60 99 0.0 3.0 0.00 0.00 0.00 49 1014.1
20260507142406 61 105 1.0 8.0 0.00 0.00 0.00 47 1014.2
20260507141905 61 106 1.0 3.0 0.00 0.00 0.00 48 1014.3
20260507141405 62 108 1.0 6.0 0.00 0.00 0.00 47 1014.3
20260507140906 62 97 0.0 2.0 0.00 0.00 0.00 51 1014.4
20260507140406 61 129 1.0 3.0 0.00 0.00 0.00 49 1014.5
20260507135906 61 114 0.0 3.0 0.00 0.00 0.00 50 1014.5
20260507134906 60 119 2.0 6.0 0.00 0.00 0.00 52 1014.6
20260507133905 61 106 2.0 5.0 0.00 0.00 0.00 49 1014.7
20260507132906 60 38 1.0 6.0 0.00 0.00 0.00 49 1014.5
20260507131906 61 139 1.0 6.0 0.00 0.00 0.00 51 1014.7
20260507131406 61 136 2.0 6.0 0.00 0.00 0.00 50 1014.7
20260507130905 61 112 0.0 3.0 0.00 0.00 0.00 48 1014.7
20260507130405 60 46 1.0 3.0 0.00 0.00 0.00 50 1014.9
20260507125906 60 113 1.0 7.0 0.00 0.00 0.00 51 1014.8
20260507125405 60 98 2.0 7.0 0.00 0.00 0.00 50 1014.8
20260507124905 60 105 0.0 2.0 0.00 0.00 0.00 53 1014.9
20260507124406 60 119 1.0 5.0 0.00 0.00 0.00 51 1015.0
20260507123905 60 326 2.0 7.0 0.00 0.00 0.00 51 1015.0
20260507123405 60 78 0.0 5.0 0.00 0.00 0.00 51 1015.0
20260507122406 59 117 1.0 3.0 0.00 0.00 0.00 54 1014.9
20260507121905 59 328 1.0 3.0 0.00 0.00 0.00 54 1015.0
20260507120905 59 115 1.0 3.0 0.00 0.00 0.00 57 1015.1
20260507120405 58 110 1.0 5.0 0.00 0.00 0.00 56 1015.2
20260507115905 58 326 1.0 3.0 0.00 0.00 0.00 57 1015.3
20260507115406 58 73 1.0 3.0 0.00 0.00 0.00 60 1015.3
20260507114905 58 94 0.0 3.0 0.00 0.00 0.00 64 1015.3
20260507113905 57 126 0.0 3.0 0.00 0.00 0.00 64 1015.4
20260507113405 57 11 1.0 6.0 0.00 0.00 0.00 62 1015.5
20260507112906 57 112 1.0 3.0 0.00 0.00 0.00 64 1015.5
20260507112405 56 19 1.0 6.0 0.00 0.00 0.00 66 1015.5
20260507111905 56 105 1.0 3.0 0.00 0.00 0.00 66 1015.6
20260507111406 55 351 1.0 3.0 0.00 0.00 0.00 68 1015.6
20260507110405 55 132 1.0 3.0 0.00 0.00 0.00 67 1015.7
20260507105405 55 130 0.0 3.0 0.00 0.00 0.00 67 1015.9
20260507104906 55 108 1.0 3.0 0.00 0.00 0.00 67 1015.9
20260507104405 54 127 0.0 2.0 0.00 0.00 0.00 68 1015.9
20260507103405 54 131 1.0 3.0 0.00 0.00 0.00 68 1015.9
20260507102907 54 116 1.0 3.0 0.00 0.00 0.00 69 1015.9
20260507102405 53 106 0.0 2.0 0.00 0.00 0.00 70 1016.0
20260507101906 53 122 0.0 2.0 0.00 0.00 0.00 71 1016.0
20260507100905 53 15 0.0 3.0 0.00 0.00 0.00 72 1016.0
20260507100405 53 101 1.0 3.0 0.00 0.00 0.00 73 1016.0
20260507095905 53 113 1.0 3.0 0.00 0.00 0.00 74 1015.9
20260507095405 53 124 0.0 5.0 0.00 0.00 0.00 74 1015.9
20260507094905 52 95 0.0 3.0 0.00 0.00 0.00 75 1015.9
20260507094405 52 356 0.0 3.0 0.00 0.00 0.00 74 1015.9
20260507093905 52 101 0.0 1.0 0.00 0.00 0.00 75 1015.9
20260507093405 52 126 0.0 2.0 0.00 0.00 0.00 76 1015.9
20260507092905 52 117 0.0 2.0 0.00 0.00 0.00 77 1015.9
20260507092405 52 323 0.0 2.0 0.00 0.00 0.00 76 1015.9
20260507091905 51 113 0.0 3.0 0.00 0.00 0.00 78 1016.0
20260507091405 51 179 1.0 3.0 0.00 0.00 0.00 78 1015.9
20260507090905 51 101 0.0 2.0 0.00 0.00 0.00 79 1016.0
20260507090405 50 117 0.0 1.0 0.00 0.00 0.00 81 1016.0
20260507085905 50 91 0.0 1.0 0.00 0.00 0.00 82 1015.9
20260507085406 49 108 0.0 2.0 0.00 0.00 0.00 82 1016.0
20260507084907 49 110 0.0 1.0 0.00 0.00 0.00 82 1016.0
20260507084405 49 105 0.0 1.0 0.00 0.00 0.00 83 1016.1
20260507083905 49 105 0.0 1.0 0.00 0.00 0.00 83 1016.1
20260507083405 49 117 0.0 2.0 0.00 0.00 0.00 84 1016.1
20260507082905 48 101 0.0 2.0 0.00 0.00 0.00 84 1016.1
20260507082405 48 101 0.0 1.0 0.00 0.00 0.00 85 1016.1
20260507081405 48 9 0.0 2.0 0.00 0.00 0.00 86 1016.0
20260507080905 47 354 0.0 2.0 0.00 0.00 0.00 86 1016.0
20260507080405 47 323 0.0 2.0 0.00 0.00 0.00 86 1016.0
20260507075905 47 38 0.0 1.0 0.00 0.00 0.00 87 1016.0
20260507075405 47 65 0.0 1.0 0.00 0.00 0.00 87 1016.0
20260507074905 47 109 0.0 2.0 0.00 0.00 0.00 87 1016.0
20260507074405 47 122 0.0 2.0 0.00 0.00 0.00 87 1016.0
20260507073905 47 94 0.0 1.0 0.00 0.00 0.00 88 1016.1
20260507073405 47 94 0.0 1.0 0.00 0.00 0.00 88 1016.0
20260507072905 46 21 0.0 1.0 0.00 0.00 0.00 88 1016.0
20260507071405 46 140 0.0 0.0 0.00 0.00 0.00 90 1016.0
20260507070905 46 140 0.0 1.0 0.00 0.00 0.00 90 1015.9
20260507070412 46 139 0.0 1.0 0.00 0.00 0.00 90 1015.9
20260507065905 45 344 0.0 1.0 0.00 0.00 0.00 91 1015.9
20260507065405 45 12 0.0 1.0 0.00 0.00 0.00 91 1015.9
20260507064905 45 37 0.0 1.0 0.00 0.00 0.00 91 1015.8
20260507063905 45 15 0.0 1.0 0.00 0.00 0.00 92 1015.8
20260507062905 44 140 0.0 1.0 0.00 0.00 0.00 92 1015.7
20260507062405 44 35 0.0 1.0 0.00 0.00 0.00 93 1015.7
20260507061905 44 24 0.0 1.0 0.00 0.00 0.00 93 1015.7
20260507061405 44 153 0.0 2.0 0.00 0.00 0.00 93 1015.7
20260507060904 44 121 0.0 1.0 0.00 0.00 0.00 93 1015.7
20260507060405 44 140 0.0 1.0 0.00 0.00 0.00 93 1015.7
20260507055405 44 97 0.0 1.0 0.00 0.00 0.00 94 1015.7
20260507054904 43 86 0.0 2.0 0.00 0.00 0.00 94 1015.6